Location: Amsterdam
(30.7274°N, 84.4357°W)
Time: 22:09:07
(UTC+00:00)

BlueWalker 3 - Visible Passes

Search period start: 17 January 2026 00:00
Search period end: 27 January 2026 00:00
Orbit: 451 x 463 km, 53.2° (Epoch: 17 January)

Date Brightness Start Highest point End Pass type
(mag) Time Alt. Az. Time Alt. Az. Time Alt. Az.
17 Jan 3.2 00:52:32 10° SSW 00:54:31 31° SSW 00:54:31 31° SSW visible
18 Jan 2.1 00:17:21 10° SSW 00:20:45 44° SE 00:21:14 41° ESE visible
18 Jan 2.7 23:42:18 10° S 23:45:27 30° SE 23:47:53 15° ENE visible
19 Jan 4.5 01:20:17 10° W 01:21:39 16° WNW 01:21:39 16° WNW visible
20 Jan 3.4 00:44:30 10° W 00:47:32 26° NW 00:48:12 24° NNW visible
21 Jan 3.1 00:08:50 10° WSW 00:12:07 35° NW 00:14:40 15° NNE visible
21 Jan 2.5 23:33:15 10° WSW 23:36:43 49° NW 23:40:11 10° NNE visible
24 Jan 4.5 00:02:57 10° NW 00:03:47 11° NW 00:04:38 10° NNW visible
